[[{"header":{"parameterUnit":"m.s-1","parameterCategory":1,"la1":30.2991,"la2":30.254,"lo1":-89.0895,"lo2":-89.0444,"dy":0.0017,"dx":0.0017,"nx":28,"ny":28,"refTime":"2024-08-14T09:00:00:Z","depth":0,"parameterNumber":2,"parameterNumberName":"U-component_of_WINDS"},"data":[0,0,0,0,0,0,0,0,0,0,0,0,0,0,0,0,0,0,0,0,0,0,0,0,0,0,0,0,0,0,0,0,0,0,0,0,0,0,0,0,0,0,0,0,0,0,0,0,0,0,0,0,0,0,0,0,0,0,0.7406,0.7407,0,0.7508,0.7509,0.751,0.7546,0.7546,0.7546,0.7545,0.7648,0.7651,0.7655,0,0,0,0,0,0,0,0,0,0,0,0,0,0.7242,0.7245,0.7406,0.7407,0.7408,0.7508,0.7509,0.751,0.7546,0.7546,0.7545,0.7545,0.7647,0.7651,0.7655,0,0,0,0,0,0,0,0,0,0,0,0,0,0.7325,0.7246,0.7405,0.7438,0.7442,0.7507,0.7509,0.7511,0.7546,0.7546,0.7545,0.7545,0.7646,0.7651,0.7655,0.7695,0,0,0.7669,0.7671,0,0,0,0,0,0,0,0,0.7321,0.7331,0.7432,0.7436,0.7441,0.7514,0.7489,0.7572,0.7547,0.7507,0.7545,0.7545,0.7604,0.7612,0.7632,0.77,0.7704,0.767,0.7673,0.7675,0.7676,0,0,0,0,0,0,0,0.7315,0.7327,0.7446,0.7434,0.7439,0.7448,0.7459,0.7505,0.7557,0.751,0.7513,0.7525,0.7606,0.7628,0.7635,0.7706,0.767,0.7674,0.7677,0.7679,0.7812,0.7813,0,0,0,0,0,0,0.7304,0.7322,0.7443,0.7449,0.7378,0.7451,0.7464,0.7491,0.7557,0.7566,0.7525,0.7526,0.762,0.763,0.7639,0.769,0.7675,0.7679,0.7682,0.7811,0.7812,0.7813,0,0,0,0,0,0,0.73,0.7314,0.7439,0.7386,0.7403,0.7455,0.7485,0.7493,0.7515,0.7568,0.7577,0.7538,0.762,0.7632,0.7681,0.7694,0.7681,0.7685,0.781,0.7811,0.7812,0.7792,0,0,0,0,0,0,0.7295,0.7312,0.7328,0.7387,0.7406,0.7479,0.7485,0.7495,0.7523,0.7525,0.7582,0.7591,0.7621,0.7674,0.7686,0.77,0.7689,0.7809,0.7811,0.7812,0.7792,0.7792,0.7793,0,0,0,0,0,0.7289,0.7318,0.7328,0.7343,0.7426,0.748,0.7491,0.7524,0.7524,0.754,0.7574,0.7589,0.7691,0.7679,0.7692,0.7708,0.7808,0.781,0.7812,0.7791,0.7792,0.7793,0,0,0,0,0,0,0.7258,0.7326,0.7339,0.7387,0.7427,0.7486,0.7507,0.7524,0.7565,0.7565,0.7605,0.7617,0.7663,0.7691,0.7676,0.7751,0.7751,0.7755,0.773,0.7732,0.7732,0.7724,0.7693,0,0,0,0,0,0.7257,0.7295,0.7352,0.739,0.7409,0.7455,0.7479,0.7502,0.7545,0.7562,0.76,0.7641,0.7683,0.7709,0.775,0.7796,0.7809,0.7814,0.7815,0.7815,0.7818,0.7845,0.7848,0.7818,0.7818,0.7818,0,0,0.7255,0.7297,0.7318,0.7384,0.7418,0.7457,0.7469,0.7509,0.7538,0.7568,0.7616,0.7646,0.7695,0.7743,0.7766,0.7767,0.7829,0.7817,0.7817,0.782,0.7847,0.785,0.7853,0.782,0.7819,0.7819,0,0,0.7271,0.7306,0.7342,0.7376,0.7428,0.7458,0.7466,0.7523,0.7543,0.7593,0.7617,0.7652,0.7722,0.7756,0.7782,0.7813,0.7829,0.7825,0.7828,0.7854,0.7856,0.7858,0.7869,0.7873,0.7828,0.7828,0.7828,0,0.7262,0.7321,0.7357,0.7397,0.7425,0.7456,0.7492,0.7523,0.7585,0.7604,0.7605,0.7695,0.773,0.7786,0.7794,0.7814,0.7825,0.7818,0.7853,0.7856,0.7858,0.7869,0.7873,0.7828,0.7828,0.7828,0.7828,0,0.7307,0.7348,0.737,0.743,0.7461,0.7499,0.7541,0.7568,0.7589,0.7619,0.7669,0.7712,0.7763,0.7778,0.7798,0.7838,0.7837,0.7845,0.7846,0.786,0.787,0.7875,0.7827,0.7827,0.7827,0.7827,0,0,0.7305,0.7386,0.7393,0.7421,0.7481,0.7514,0.7553,0.7603,0.7625,0.7668,0.7702,0.7761,0.7769,0.7799,0.7823,0.7846,0.7868,0.7852,0.7853,0.7853,0.7915,0.7908,0.7912,0.7879,0.788,0.7881,0.7911,0,0.7328,0.74,0.7434,0.7491,0.7529,0.7559,0.7594,0.7634,0.7664,0.7701,0.7733,0.7775,0.7782,0.7801,0.7825,0.786,0.7881,0.7859,0.7911,0.7912,0.7897,0.7918,0.7911,0.7937,0.7915,0.7916,0.7916,0,0.7365,0.7408,0.7468,0.7525,0.7542,0.7572,0.7621,0.7656,0.7703,0.7723,0.7757,0.7781,0.7824,0.7822,0.7882,0.7866,0.7889,0.791,0.7912,0.7917,0.7914,0.7923,0.7946,0.7949,0.7924,0.7923,0.7922,0,0.7357,0.743,0.7476,0.7499,0.7566,0.7586,0.7615,0.7662,0.769,0.7733,0.7752,0.7799,0.7825,0.7861,0.7897,0.7893,0.7953,0.7954,0.797,0.7969,0.7981,0.7979,0.8006,0.7997,0.7997,0.7997,0.7997,0,0.7379,0.7415,0.7473,0.7501,0.7542,0.7582,0.7621,0.7653,0.7694,0.7729,0.7758,0.779,0.7836,0.7873,0.7902,0.7947,0.7958,0.7976,0.7983,0.7973,0.797,0.7988,0.7987,0.7998,0.7998,0.7998,0.7997,0,0.7377,0.7417,0.7469,0.7529,0.7545,0.7572,0.7624,0.7652,0.7684,0.7727,0.774,0.7789,0.7835,0.7875,0.7936,0.7955,0.8001,0.801,0.7985,0.7989,0.8003,0.8001,0.8041,0.8049,0.8034,0.8035,0.8035,0,0.7388,0.7416,0.7479,0.7505,0.7534,0.7574,0.7604,0.7645,0.7674,0.773,0.7752,0.78,0.7841,0.7913,0.7954,0.8001,0.8011,0.8022,0.8018,0.8007,0.8011,0.8008,0.8011,0.8022,0.8022,0.8022,0.8022,0,0.7403,0.7422,0.7464,0.7513,0.7547,0.7587,0.7628,0.7647,0.7696,0.7727,0.7775,0.7807,0.7869,0.7917,0.7968,0.7998,0.8018,0.8023,0.8029,0.8018,0.8003,0.8011,0.7985,0.8021,0.8021,0.8021,0.8021,0.8021,0.7408,0.7435,0.7484,0.7529,0.7565,0.7603,0.7632,0.7668,0.7709,0.7763,0.7785,0.7834,0.7881,0.7952,0.7982,0.8021,0.8024,0.8033,0.8035,0.8037,0.8035,0.7997,0.803,0.8031,0.8031,0.8031,0.8031,0,0.7425,0.7458,0.75,0.7557,0.7592,0.7609,0.7656,0.7684,0.7727,0.777,0.7809,0.7865,0.7911,0.7957,0.8006,0.8028,0.8038,0.8039,0.8038,0.8044,0.8029,0.8019,0.803,0.803,0.803,0.803,0.803,0.803,0.7438,0.7484,0.7509,0.7574,0.7607,0.7655,0.768,0.7716,0.775,0.781,0.785,0.7879,0.7923,0.7976,0.8019,0.8032,0.8048,0.8047,0.8061,0.8046,0.8045,0.8045,0.8035,0.805,0.805,0.8073,0.8073,0.8074]},{"header":{"parameterUnit":"m.s-1","parameterCategory":1,"la1":30.2991,"la2":30.254,"lo1":-89.0895,"lo2":-89.0444,"dy":0.0017,"dx":0.0017,"nx":28,"ny":28,"refTime":"2024-08-14T09:00:00:Z","depth":0,"parameterNumber":3,"parameterNumberName":"V-component_of_WINDS"},"data":[0,0,0,0,0,0,0,0,0,0,0,0,0,0,0,0,0,0,0,0,0,0,0,0,0,0,0,0,0,0,0,0,0,0,0,0,0,0,0,0,0,0,0,0,0,0,0,0,0,0,0,0,0,0,0,0,0,0,1.5644,1.5644,0,1.5621,1.562,1.562,1.5609,1.5609,1.5609,1.5609,1.5582,1.5582,1.5581,0,0,0,0,0,0,0,0,0,0,0,0,0,1.5677,1.5677,1.5644,1.5644,1.5644,1.5621,1.562,1.562,1.5609,1.5609,1.5609,1.5609,1.5583,1.5582,1.5581,0,0,0,0,0,0,0,0,0,0,0,0,0,1.5659,1.5677,1.5644,1.5635,1.5634,1.5621,1.562,1.562,1.5609,1.5609,1.5609,1.5609,1.5583,1.5582,1.5581,1.5573,0,0,1.5578,1.5577,0,0,0,0,0,0,0,0,1.566,1.5658,1.5637,1.5636,1.5635,1.5618,1.5622,1.5604,1.5609,1.5619,1.5609,1.5609,1.5594,1.5592,1.5587,1.5572,1.5571,1.5577,1.5577,1.5576,1.5576,0,0,0,0,0,0,0,1.5662,1.5659,1.5635,1.5637,1.5635,1.5632,1.5629,1.5619,1.5606,1.5618,1.5617,1.5614,1.5593,1.5589,1.5587,1.5571,1.5577,1.5576,1.5576,1.5575,1.5548,1.5548,0,0,0,0,0,0,1.5665,1.566,1.5636,1.5634,1.5648,1.5631,1.5628,1.5623,1.5606,1.5604,1.5614,1.5614,1.559,1.5588,1.5586,1.5576,1.5576,1.5575,1.5575,1.5548,1.5548,1.5548,0,0,0,0,0,0,1.5665,1.5663,1.5636,1.5647,1.5643,1.5631,1.5625,1.5623,1.5618,1.5604,1.5601,1.5612,1.559,1.5587,1.5577,1.5575,1.5575,1.5574,1.5548,1.5548,1.5548,1.5556,0,0,0,0,0,0,1.5666,1.5663,1.566,1.5647,1.5643,1.5629,1.5625,1.5622,1.5616,1.5616,1.5601,1.5598,1.559,1.5578,1.5576,1.5573,1.5573,1.5548,1.5548,1.5548,1.5556,1.5556,1.5557,0,0,0,0,0,1.5668,1.5663,1.566,1.5658,1.564,1.5629,1.5626,1.5617,1.5616,1.5613,1.5604,1.5599,1.5576,1.5577,1.5574,1.5572,1.5548,1.5548,1.5548,1.5556,1.5556,1.5557,0,0,0,0,0,0,1.5676,1.5661,1.5658,1.5649,1.564,1.5627,1.5623,1.5618,1.5609,1.5608,1.5597,1.5594,1.5584,1.5577,1.5579,1.5563,1.5561,1.556,1.5569,1.5569,1.5569,1.5571,1.5572,0,0,0,0,0,1.5677,1.567,1.5657,1.5651,1.5647,1.5636,1.563,1.5624,1.5614,1.561,1.56,1.559,1.558,1.5574,1.5564,1.5555,1.5551,1.5551,1.5552,1.5552,1.5552,1.5546,1.5545,1.5547,1.5547,1.5547,0,0,1.5679,1.567,1.5666,1.5652,1.5645,1.5637,1.5632,1.5624,1.5618,1.5609,1.5598,1.5591,1.5578,1.5568,1.5563,1.5562,1.555,1.5552,1.5552,1.5551,1.5545,1.5545,1.5545,1.5547,1.5547,1.5547,0,0,1.5678,1.5671,1.5665,1.5657,1.5646,1.5639,1.5637,1.5624,1.5619,1.5609,1.5602,1.5594,1.5577,1.5569,1.5562,1.5559,1.5553,1.5556,1.5557,1.5552,1.5552,1.5551,1.555,1.5549,1.5555,1.5555,1.5555,0,1.5681,1.567,1.5662,1.5655,1.5648,1.564,1.5634,1.5627,1.5612,1.5608,1.5607,1.5586,1.5577,1.5565,1.5564,1.5559,1.5557,1.5557,1.5552,1.5552,1.5552,1.555,1.555,1.5555,1.5555,1.5555,1.5555,0,1.5675,1.5667,1.5663,1.5651,1.5644,1.5637,1.5627,1.5622,1.5616,1.5609,1.5598,1.5587,1.5575,1.5572,1.5566,1.5558,1.5558,1.5555,1.5552,1.5552,1.555,1.555,1.5556,1.5556,1.5556,1.5556,0,0,1.5679,1.5662,1.5661,1.5655,1.5642,1.5635,1.5628,1.5617,1.5612,1.5602,1.5595,1.5582,1.5579,1.5571,1.5564,1.556,1.5557,1.5557,1.5556,1.5557,1.5548,1.555,1.555,1.5553,1.5553,1.5553,1.5549,0,1.5676,1.5663,1.5655,1.5645,1.5637,1.5629,1.5623,1.5613,1.5606,1.5598,1.559,1.5581,1.5577,1.5573,1.5568,1.5559,1.5555,1.5559,1.5546,1.5546,1.5549,1.5549,1.5551,1.5548,1.5548,1.5548,1.5548,0,1.5671,1.5663,1.5652,1.564,1.5636,1.5631,1.562,1.5613,1.5602,1.5597,1.5589,1.5582,1.5573,1.5572,1.5558,1.5561,1.5555,1.555,1.5549,1.5548,1.5547,1.5547,1.5546,1.5546,1.5546,1.5547,1.5547,0,1.5675,1.5661,1.5652,1.5648,1.5633,1.5629,1.5623,1.5613,1.5606,1.5597,1.5592,1.5582,1.5575,1.5567,1.5557,1.5557,1.5545,1.5542,1.554,1.554,1.5537,1.5538,1.5536,1.5534,1.5534,1.5534,1.5534,0,1.5673,1.5666,1.5654,1.5649,1.5641,1.5632,1.5624,1.5617,1.5608,1.5601,1.5593,1.5586,1.5574,1.5565,1.5557,1.5547,1.5545,1.554,1.5538,1.5541,1.5541,1.5537,1.5536,1.5534,1.5534,1.5534,1.5534,0,1.5676,1.5667,1.5658,1.5645,1.5642,1.5637,1.5625,1.562,1.5612,1.5603,1.56,1.5588,1.5578,1.5568,1.5553,1.5548,1.5538,1.5535,1.5542,1.5541,1.5539,1.5539,1.5533,1.5532,1.5532,1.5532,1.5532,0,1.5675,1.567,1.5657,1.5652,1.5646,1.5638,1.5632,1.5623,1.5616,1.5604,1.56,1.5589,1.558,1.5563,1.5552,1.5541,1.5538,1.5537,1.5536,1.5539,1.5538,1.5538,1.5537,1.5537,1.5537,1.5537,1.5537,0,1.5674,1.567,1.5662,1.5653,1.5646,1.5638,1.5629,1.5625,1.5614,1.5607,1.5597,1.559,1.5576,1.5565,1.5553,1.5545,1.5539,1.5538,1.5536,1.5539,1.5543,1.5541,1.5543,1.5538,1.5538,1.5538,1.5538,1.5538,1.5675,1.567,1.566,1.5652,1.5644,1.5637,1.5631,1.5623,1.5614,1.5603,1.5597,1.5587,1.5576,1.5559,1.5551,1.5542,1.5541,1.5539,1.5538,1.5538,1.5539,1.5545,1.554,1.554,1.554,1.554,1.554,0,1.5673,1.5667,1.5659,1.5648,1.5641,1.5637,1.5627,1.5621,1.5613,1.5603,1.5595,1.5582,1.5572,1.5561,1.5549,1.5544,1.5541,1.5541,1.5541,1.554,1.5541,1.5543,1.5544,1.5544,1.5544,1.5544,1.5544,1.5544,1.5672,1.5664,1.5659,1.5646,1.564,1.563,1.5625,1.5617,1.561,1.5597,1.5589,1.5582,1.5571,1.5559,1.5549,1.5546,1.5542,1.5543,1.5539,1.554,1.554,1.5539,1.5541,1.5542,1.5542,1.5538,1.5538,1.5538]}]]